Dewpoint
53 48 47 36 30 32 26 26 18 23 25 23 20 24 26 34 38 44 46 57 59 61 68 70 72 73 73 73 73 73 74 74 74 74 74 74 74 74 74 73 73 73 72 72 71 71 71 71 71
39 31 31 29 29 23 29 30 24 28 26 27 28 18 27 38 44 47 50 55 57 62 64 69 72 72 73 73 73 73 74 74 74 74 74 74 74 74 74 73 73 72 72 72 71 70 71 71 71
45 34 26 27 22 18 26 29 28 29 28 26 23 32 34 40 45 48 54 55 57 59 62 70 71 70 73 73 73 73 73 73 73 73 73 73 74 74 73 73 73 72 72 72 71 71 71 71 70
24 21 23 18 18 18 29 28 26 28 29 28 27 35 39 42 46 52 54 55 57 58 64 71 71 72 73 73 73 73 73 73 73 73 73 73 73 73 73 73 73 72 72 72 71 71 70 70 69
18 18 17 16 11 11 18 22 25 26 29 26 28 37 40 46 52 54 54 55 57 59 68 70 71 72 72 73 73 72 72 72 72 72 73 73 73 73 72 72 73 72 72 72 71 70 69 69 68
18 17 13 7 10 12 15 21 20 23 30 27 38 41 45 50 51 54 54 56 59 66 66 70 72 72 72 72 72 71 71 71 72 72 72 72 72 72 72 72 72 72 72 71 70 69 69 68 68
19 15 14 8 6 9 13 20 21 21 27 27 32 44 47 47 53 54 55 60 61 66 65 68 70 71 71 70 70 70 70 71 71 71 72 71 71 71 72 72 72 72 71 70 70 69 68 67 66
16 14 10 10 8 6 19 19 19 20 22 30 33 44 45 49 52 54 56 60 64 66 66 67 69 71 71 71 70 70 70 70 71 71 71 70 70 71 71 71 71 71 71 70 70 69 68 67 66
16 14 12 10 7 8 16 16 18 21 22 30 34 41 46 50 52 54 56 58 63 65 66 67 67 68 70 70 70 70 70 70 70 71 70 69 67 69 70 69 70 70 69 69 69 69 68 67 66
12 15 11 7 7 3 6 13 14 20 22 32 43 46 50 49 52 54 55 57 61 64 66 66 67 66 67 63 68 69 69 69 69 69 70 67 66 66 66 66 69 69 69 68 68 68 68 67 64
11 13 13 8 5 7 7 11 12 19 23 32 44 49 50 49 52 53 55 57 59 62 64 66 67 67 66 61 67 66 67 67 68 68 69 67 64 65 64 68 67 68 68 67 67 67 66 64 64
8 9 11 11 9 6 8 11 12 16 22 26 41 51 51 49 50 52 53 56 58 61 63 65 66 67 67 64 65 64 64 65 66 66 69 66 66 65 63 66 66 65 65 65 65 65 65 65 65
8 7 7 10 10 9 11 10 11 13 15 18 33 50 51 50 49 50 51 54 57 60 62 64 65 67 67 68 65 62 63 63 64 66 68 66 65 66 64 63 64 63 63 64 65 64 64 65 64
10 7 7 8 8 10 8 10 12 15 17 17 27 40 52 50 49 49 49 51 56 59 62 64 64 67 67 67 66 63 63 63 64 64 65 67 65 67 65 65 64 62 62 61 61 63 62 63 63
14 9 8 8 9 11 10 9 11 11 15 17 18 29 48 51 48 48 49 51 55 58 61 64 65 68 68 68 69 65 65 64 62 63 66 66 66 67 66 65 65 64 62 65 62 62 64 64 63
24 17 12 9 10 12 10 9 10 10 9 12 15 23 29 49 49 48 49 48 52 55 60 64 63 67 68 67 67 65 65 65 63 64 64 66 65 66 66 64 64 65 65 63 65 64 63 63 63
20 18 16 11 11 10 10 10 10 11 9 10 14 19 23 34 49 48 47 45 48 51 58 63 64 66 68 68 67 68 66 66 65 64 64 67 66 64 66 61 63 65 63 64 63 63 63 61 62
13 11 15 16 12 12 8 7 9 10 9 12 11 18 22 30 45 48 47 45 43 50 57 62 63 65 68 68 67 66 66 66 65 65 64 66 65 65 64 63 63 64 61 62 62 62 63 62 61
18 13 8 13 16 16 15 8 3 7 11 12 10 13 17 23 36 47 49 47 46 50 56 60 63 64 66 66 66 66 65 65 65 65 66 65 65 66 65 63 63 64 61 60 62 63 63 61 61
18 18 17 15 13 14 16 14 8 6 11 12 10 9 15 19 25 41 49 48 50 51 56 58 62 63 65 66 66 66 65 65 65 65 65 66 66 66 65 64 62 62 61 62 63 62 61 61 63
19 18 18 16 16 14 12 11 12 9 12 11 10 11 14 19 21 32 47 50 52 52 57 56 61 63 64 65 66 66 66 66 65 65 64 65 65 66 66 65 64 63 62 61 62 63 61 59 61
18 18 16 14 15 14 15 8 15 13 12 14 13 13 13 17 21 23 32 47 51 53 58 57 58 63 64 65 64 64 63 62 63 64 64 64 65 65 66 66 65 65 63 61 61 63 63 61 59
14 18 16 15 14 20 19 16 11 15 13 15 16 15 21 25 24 23 28 36 47 53 58 63 61 61 63 64 64 64 63 63 63 63 64 65 65 65 65 67 67 66 65 64 62 62 63 63 60
11 14 16 18 19 17 19 19 17 12 16 16 16 14 17 19 22 25 27 35 35 40 46 53 55 57 64 65 65 65 64 63 63 63 64 64 65 66 66 66 67 67 66 65 65 64 64 63 63
12 14 14 15 17 17 18 17 20 19 19 21 22 20 19 20 22 22 23 23 28 35 47 51 51 48 53 63 66 66 65 66 65 64 65 65 65 65 66 66 67 67 67 66 66 65 64 65 63
17 14 15 16 16 15 16 15 16 21 20 21 22 23 26 29 35 32 31 36 35 40 41 45 51 50 53 55 56 66 68 66 66 66 65 66 65 66 67 67 67 67 67 67 67 66 66 65 66
25 20 15 17 21 18 14 13 19 21 19 21 23 23 25 30 33 35 43 35 40 42 45 52 44 53 56 57 58 59 62 68 66 67 67 66 67 66 68 69 68 68 68 68 67 67 66 66 65
2 5 20 22 14 15 14 15 14 20 20 20 21 26 25 30 29 32 34 38 39 43 44 52 53 50 53 56 58 55 57 65 68 67 67 67 66 68 67 68 68 68 68 68 67 67 66 66 66
18 4 10 14 20 18 13 13 20 20 25 25 23 21 30 29 35 35 36 37 40 43 46 52 55 53 57 59 56 59 56 61 67 68 67 67 67 66 67 67 68 68 67 68 67 67 66 66 66
21 24 28 27 16 17 23 24 25 27 21 23 26 29 32 37 33 33 36 37 38 39 43 45 52 57 59 61 61 61 62 62 61 65 67 67 67 66 66 66 67 67 67 67 67 66 66 65 65
Lifted_Index
8 7 6 5 3 1 0 -0 -0 1 2 3 3 4 4 3 1 0 0 1 0 -0 -1 -2 -3 -3 -4 -4 -4 -4 -4 -4 -4 -4 -4 -4 -5 -5 -5 -5 -6 -6 -6 -5 -5 -5 -4 -4 -4
8 7 6 4 2 1 -0 -0 0 1 2 3 3 4 4 3 1 1 0 0 1 0 -1 -2 -3 -3 -4 -4 -4 -4 -4 -4 -4 -4 -4 -4 -5 -5 -5 -5 -5 -5 -5 -5 -5 -4 -4 -4 -4
7 7 6 4 2 0 -0 -1 -0 1 2 3 3 3 3 3 1 1 0 0 1 0 -1 -2 -2 -3 -3 -4 -4 -4 -4 -4 -4 -4 -4 -4 -4 -5 -5 -4 -4 -4 -4 -4 -4 -4 -4 -3 -3
7 7 5 3 1 0 -0 -1 -0 1 2 2 3 3 3 2 1 0 0 0 1 0 -1 -2 -2 -2 -3 -3 -4 -4 -4 -4 -4 -3 -4 -4 -4 -4 -4 -4 -4 -4 -4 -4 -3 -3 -3 -2 -2
8 6 4 3 1 0 -0 -0 -0 1 1 1 2 2 2 1 1 0 0 0 0 -0 -1 -2 -2 -2 -3 -3 -3 -3 -3 -3 -3 -3 -3 -3 -3 -4 -4 -4 -4 -4 -4 -3 -3 -2 -1 -1 -1
7 6 4 2 1 0 -0 0 0 0 1 1 1 1 1 1 1 1 1 0 -0 -1 -1 -2 -2 -2 -2 -2 -2 -2 -3 -3 -3 -3 -3 -3 -3 -3 -3 -3 -4 -4 -3 -3 -2 -1 -1 -0 0
7 6 4 2 1 0 0 1 1 1 0 0 0 0 0 0 1 1 1 0 -1 -1 -1 -1 -2 -2 -2 -2 -1 -1 -2 -2 -2 -3 -3 -2 -2 -2 -2 -3 -3 -3 -3 -2 -2 -1 -1 0 1
8 6 4 3 2 1 0 1 1 1 0 -0 -0 -0 -0 0 0 0 0 -0 -1 -1 -1 -1 -2 -2 -2 -2 -1 -1 -1 -2 -2 -2 -2 -2 -1 -2 -2 -2 -2 -2 -2 -1 -1 -1 -0 0 1
8 6 4 3 2 1 0 1 1 1 0 -0 -0 -1 -0 0 0 0 -0 -0 -1 -1 -1 -1 -1 -1 -1 -1 -1 -1 -1 -1 -1 -2 -1 -1 -0 -1 -1 -1 -1 -2 -1 -1 -1 -0 -0 0 1
8 6 5 4 3 1 0 0 1 1 1 -0 -1 -1 -1 -0 -0 -0 -1 -1 -1 -1 -1 -1 -1 -1 -1 -0 -1 -1 -1 -1 -1 -1 -1 -0 0 0 0 -0 -0 -1 -0 -0 -0 0 0 0 0
8 7 6 5 4 2 1 1 1 2 1 0 -1 -1 -1 -1 -0 -1 -1 -1 -1 -1 -1 -1 -1 -1 -0 -0 -0 -1 -1 -1 -1 -1 -1 -0 0 1 1 0 -0 0 0 0 0 0 0 0 0
7 7 7 6 5 4 3 3 3 3 2 1 -1 -1 -1 -1 -1 -1 -1 -1 -1 -2 -2 -2 -1 -1 -1 -1 -0 -0 0 -0 -0 -1 -1 -1 -0 0 0 -0 -0 0 1 0 0 0 0 -0 -0
7 7 7 6 6 5 5 5 4 4 3 2 0 -1 -1 -1 -1 -1 -1 -1 -1 -2 -2 -2 -2 -2 -2 -1 -1 0 0 0 -0 -1 -1 -1 -1 -1 -0 -0 -0 0 1 1 0 0 -0 -0 -0
7 7 7 6 6 6 6 6 5 5 4 3 2 0 -1 -1 -1 -1 -1 -1 -1 -2 -2 -2 -2 -2 -2 -2 -1 -0 0 0 0 -0 -1 -1 -1 -1 -1 -1 -0 0 1 1 1 0 -0 -0 -0
7 6 6 6 6 6 6 6 6 6 5 4 3 2 0 -1 -1 -1 -1 -1 -1 -2 -2 -2 -2 -2 -3 -2 -2 -1 -1 -0 0 0 -1 -1 -1 -1 -1 -1 -0 -0 0 0 0 0 -0 -0 -0
6 6 5 5 6 6 6 5 6 6 5 5 4 3 2 0 -1 -1 -0 -0 -1 -1 -2 -2 -3 -3 -3 -3 -2 -2 -1 -1 -0 -0 -0 -1 -1 -1 -1 -0 -0 -0 -0 -0 -0 0 -0 -0 0
5 4 4 4 5 6 5 5 6 6 5 5 5 4 3 1 -0 -1 0 1 0 -1 -2 -2 -3 -3 -3 -3 -2 -2 -2 -1 -1 -0 -0 -1 -0 -0 0 0 0 0 0 0 0 0 0 1 1
5 4 4 5 5 5 5 5 5 5 5 5 5 4 4 2 0 -1 -0 1 1 0 -1 -2 -2 -3 -3 -3 -3 -2 -2 -2 -1 -1 -1 -1 -0 -0 0 1 1 1 1 1 1 1 1 1 1
6 6 5 6 5 4 3 3 4 4 4 4 4 4 4 3 1 -0 -1 1 1 1 -0 -1 -2 -2 -3 -3 -3 -2 -2 -2 -1 -1 -1 -1 -1 -0 0 1 1 1 1 2 1 1 1 1 1
6 6 6 6 5 4 2 2 2 3 4 4 4 4 3 3 2 0 -1 -0 1 1 0 -0 -1 -2 -2 -3 -3 -3 -2 -2 -2 -2 -1 -1 -1 -1 -0 0 1 1 1 2 1 1 1 1 1
6 6 6 6 5 4 2 2 2 3 4 4 4 3 3 3 3 1 -0 -1 -0 0 0 -0 -1 -2 -2 -3 -3 -3 -2 -2 -2 -2 -2 -2 -1 -1 -1 -1 -0 1 1 1 1 1 1 1 1
5 5 5 5 5 4 2 2 2 3 4 4 4 3 3 3 3 3 1 -1 -1 -0 -0 -1 -1 -2 -2 -2 -3 -2 -2 -2 -2 -2 -2 -2 -2 -1 -1 -1 -1 -0 0 1 1 1 1 1 1
4 3 3 3 3 3 3 2 3 4 4 4 4 3 3 3 4 4 3 1 0 0 0 -0 -1 -2 -2 -2 -2 -2 -2 -2 -2 -2 -2 -2 -2 -2 -2 -2 -2 -1 -1 -0 0 0 0 0 1
2 2 2 1 1 2 3 3 4 4 4 4 3 3 3 3 3 4 4 3 3 2 2 1 1 -0 -1 -2 -3 -3 -3 -2 -2 -2 -2 -2 -2 -2 -2 -2 -2 -2 -2 -2 -1 -1 -1 -0 -0
1 1 0 -0 -0 1 2 3 4 4 4 4 3 2 1 2 3 3 4 4 4 4 4 3 2 2 0 -1 -2 -3 -3 -3 -3 -3 -3 -3 -2 -2 -2 -2 -2 -2 -2 -2 -2 -2 -1 -1 -1
0 0 0 -0 -1 0 1 2 3 4 4 4 3 2 2 1 2 3 4 5 5 5 5 4 3 2 2 1 -0 -2 -3 -4 -4 -4 -3 -3 -3 -3 -3 -3 -2 -2 -3 -3 -3 -3 -2 -2 -2
0 0 0 -0 -0 -0 0 1 2 3 3 3 3 2 2 2 2 2 4 5 5 5 5 4 3 2 2 2 1 0 -2 -3 -4 -4 -4 -4 -4 -4 -4 -3 -3 -3 -3 -3 -3 -3 -3 -3 -3
0 1 0 0 -0 -0 0 1 1 1 2 2 2 2 3 3 2 2 3 4 4 4 4 3 3 3 2 2 2 2 0 -2 -4 -5 -4 -4 -4 -4 -4 -4 -3 -3 -3 -3 -3 -3 -3 -3 -3
0 0 1 1 0 0 0 0 1 1 1 1 1 1 1 2 2 2 3 3 3 4 4 3 2 2 1 1 1 1 1 -1 -3 -4 -4 -4 -4 -4 -4 -4 -4 -3 -3 -3 -3 -3 -3 -3 -3
0 0 0 1 1 0 0 0 1 1 1 0 0 0 0 1 2 3 3 3 3 4 4 3 2 1 0 -0 0 0 0 -1 -2 -4 -4 -4 -4 -4 -4 -4 -3 -3 -3 -3 -3 -3 -4 -3 -3